Orbital Elements at Epoch 2459000.5 (2020-May-31.0) TDB
Reference: JPL 33 (heliocentric ecliptic J2000)
Element | Value | Uncertainty (1-sigma) | Units |
e | .03943126384070989 | 3.745e-08 | |
a | 2.91199083165285 | 1.2807e-08 | au |
q | 2.797167352868218 | 1.0972e-07 | au |
i | 1.267061987053752 | 3.3678e-06 | deg |
node | 226.3590422029584 | 0.00018777 | deg |
peri | 91.93417499003058 | 0.00019272 | deg |
M | 219.6309413578897 | 4.4322e-05 | deg |
tp | 2459708.205088777024 (2022-May-08.70508878) | 0.00022398 | TDB |
period | 1815.028428802879 4.97 | 1.1974e-05 3.278e-08 | d yr |
n | .1983440007258959 | 1.3085e-09 | deg/d |
Q | 3.026814310437482 | 1.3312e-08 | au |
|
| | Orbit Determination Parameters
Additional Information
|